Regional Weather Roundup
Issued by NWS

Home | Current Version | Previous Version | Graphics & Text | Print | Product List | Glossary On
Versions: 1 2 3 4 5 6 7 8 9 10 11 12 13 14 15 16 17 18 19 20 21 22 23 24 25 26 27 28 29 30 31 32 33 34 35 36 37 38 39 40 41 42 43 44 45 46 47 48 49 50
000
ASUS44 KMEG 030810
RWRTN
TENNESSEE HOURLY STATE WEATHER ROUNDUP
NATIONAL WEATHER SERVICE MEMPHIS TN
300 AM CDT SUN MAY 03 2015

TNZ002-004-019-021-049-052-054-088>092-030900-
WEST TENNESSEE

CITY           SKY/WX    TMP DP  RH WIND       PRES   REMARKS
MEMPHIS INTL   CLEAR     58  47  66 S3        30.04F
NWS MEMPHIS      N/A     52 N/A N/A MISG        N/A
JACKSON        CLEAR     49  46  90 CALM      30.06R
DYERSBURG      CLEAR     54  39  58 CALM      30.07R
PARIS          CLEAR     48  46  93 CALM      30.06S
LEXINGTON      CLEAR     48  46  93 CALM      30.05S
$$

TNZ008-025-027-028-033-062-065-066-030900-
NORTH MIDDLE TENNESSEE

CITY           SKY/WX    TMP DP  RH WIND       PRES   REMARKS
NASHVILLE      CLEAR     54  50  86 CALM      30.08S
CLARKSVILLE    CLEAR     50  49  96 E3        30.06S FOG
SMYRNA         CLEAR     49  49 100 CALM      30.09S
COOKEVILLE     CLEAR     43  43 100 CALM      30.09R
CROSSVILLE     CLEAR     47  42  83 CALM      30.12S
$$

TNZ061-075-076-078-094-096-097-030900-
SOUTH MIDDLE TENNESSEE

CITY           SKY/WX    TMP DP  RH WIND       PRES   REMARKS
FAYETTEVILLE   CLEAR     52  46  82 CALM      30.08S
TULLAHOMA      CLEAR     46  45  93 CALM      30.09S
WINCHESTER     CLEAR     46  46 100 CALM      30.09S
MCMINNVILLE    CLEAR     46  46 100 CALM      30.09S
COLUMBIA       CLEAR     48  48 100 CALM      30.07R
SHELBYVILLE    CLEAR     52  48  87 E3        30.09S
$$

TNZ017-018-042-046-047-030900-
NORTHEAST TENNESSEE

CITY           SKY/WX    TMP DP  RH WIND       PRES   REMARKS
TRI CITIES     CLEAR     42  39  89 CALM      30.13S
ELIZABETHTON   SUNNY     45  36  70 NE3       30.14S
$$

TNZ012-013-036-069-073-074-030900-
CENTRAL EAST TENNESSEE

CITY           SKY/WX    TMP DP  RH WIND       PRES   REMARKS
KNOXVILLE      CLEAR     48  44  86 NE3       30.09R
OAK RIDGE      CLEAR     49  46  90 CALM      30.12R
GATLINBURG     SUNNY     45  43  93 CALM      30.11R
MORRISTOWN     SUNNY     48  45  87 E3        30.12S
$$

TNZ083-085-099-030900-
SOUTHEAST TENNESSEE

CITY           SKY/WX    TMP DP  RH WIND       PRES   REMARKS
CHATTANOOGA    CLEAR     52  49  89 CALM      30.10R
$$

SKY/WX REPORTED AS FAIR MEANS FEW OR NO CLOUDS BELOW
12 THOUSAND FEET.



USA.gov is the U.S. government's official web portal to all federal, state and local government web resources and services.